CAPE
22 70 207 53 0 8 56 17 0 68 31 0 0 0 0 0 3 9 1304 1350 1202 1367 1813 1893 2083 2098 2026 2250 1979 1565 1510 1535 1371 976 419 215 3 0 0 0 0 0 0 0
29 158 72 1 0 0 52 0 24 6 62 42 3 0 0 0 0 1 1567 1820 1768 1882 2167 2035 2131 2030 1978 1894 1523 1506 1515 854 175 102 48 3 0 0 0 0 0 0 0 0
8 68 103 3 6 0 7 9 18 56 17 28 27 12 0 0 0 0 1561 2102 2448 2347 2532 2349 2177 1734 1499 1281 1114 809 272 83 13 0 0 0 0 0 0 0 0 0 0 0
26 146 148 11 39 4 0 18 0 23 45 59 54 30 3 0 0 56 1643 2020 2169 2377 2112 1933 1402 1330 1055 742 410 127 4 0 0 0 0 0 0 0 0 0 0 0 0 0
13 22 48 14 18 37 35 13 26 1 73 333 85 12 0 0 0 22 1497 1830 2130 1835 1434 1212 764 464 229 11 0 0 0 0 0 0 0 0 0 0 0 0 0 0 0 0
10 16 26 5 72 33 100 25 157 98 35 91 208 57 7 0 6 433 1460 1697 1844 1490 1118 746 679 53 0 0 0 0 0 0 0 0 0 0 0 0 0 0 0 0 0 0
2 9 61 140 97 118 43 140 230 83 138 103 198 233 306 212 1292 1958 1838 1853 1327 818 609 271 3 0 0 0 0 0 0 0 0 0 0 0 0 0 0 0 0 0 0 0
0 10 76 4 0 2 2 83 135 564 1357 1493 1562 1526 1922 2220 2011 2000 1851 1123 694 318 10 0 0 0 0 0 0 0 0 0 0 0 0 0 0 0 0 0 0 0 0 1
0 0 0 0 12 226 95 184 66 6 184 893 646 2091 2360 2209 2131 1914 1308 813 306 0 0 0 0 0 0 0 0 0 0 0 0 0 0 0 0 0 0 0 0 0 0 0
61 5 5 0 0 8 0 164 139 109 108 539 542 786 723 2288 1905 1455 1030 536 160 13 51 25 14 0 0 0 0 0 0 0 0 0 0 0 0 0 0 0 0 0 0 0
75 111 124 7 0 4 2 33 86 554 556 1679 1800 2308 2239 1955 1543 1190 808 407 263 203 70 20 0 0 0 0 0 0 0 0 0 0 0 0 0 0 0 0 0 0 0 0
75 85 46 52 0 0 17 2 22 456 1193 1353 1943 2356 2364 1691 1258 1055 699 510 442 253 98 16 0 0 0 0 0 0 0 0 0 0 0 0 0 0 0 0 0 0 0 0
0 0 35 127 61 6 17 0 0 254 1212 1822 2384 2417 2057 1418 1176 916 806 728 500 305 127 5 0 0 0 0 0 0 0 0 0 0 0 0 0 0 0 0 0 0 0 0
0 0 6 2 27 1 0 0 33 376 1825 2150 2542 2395 1671 1303 1038 856 837 702 421 257 86 0 0 0 0 0 0 0 0 0 0 0 0 0 0 0 0 0 0 0 0 0
0 0 0 0 0 3 29 49 453 1682 2125 2590 2172 1893 1459 1065 990 841 749 471 225 87 18 6 0 0 0 0 0 0 0 0 0 0 0 0 0 0 0 2 0 11 10 1
117 135 59 2 114 249 753 1130 1130 1887 2272 2239 1675 1530 1213 1021 871 874 689 299 91 35 28 18 1 0 0 0 0 0 0 0 0 0 0 0 0 0 7 7 5 3 16 28
14 1 72 118 657 711 1070 1102 1446 1878 2101 2046 1798 1438 1241 1205 1112 946 598 294 79 48 48 47 32 0 0 0 0 0 0 0 0 0 0 0 0 1 3 12 21 24 19 14
488 840 498 414 251 66 970 1303 1865 2230 1958 1897 2108 2030 1781 1529 1268 893 519 171 116 50 56 95 95 7 0 0 0 0 0 0 0 0 0 6 11 4 13 9 18 11 15 5
628 501 1 10 0 0 259 138 1604 1882 2215 2426 2173 2092 1876 1698 1317 907 572 309 190 156 165 163 59 14 4 0 0 0 0 1 1 0 0 2 8 9 15 24 10 18 15 30
152 234 14 6 0 8 63 662 1845 1909 2070 2187 2139 2045 1894 1630 1161 1012 887 719 551 337 333 198 69 83 135 106 0 17 18 20 12 2 5 14 1 11 11 40 22 37 25 41
234 2 10 27 0 0 98 198 858 1768 1892 1908 1930 1691 1747 1772 1487 1461 1259 979 1071 904 425 260 220 217 374 430 84 35 41 80 59 40 22 21 31 80 134 53 98 41 44 142
257 188 73 21 44 121 20 146 163 928 1395 1754 1941 1456 1434 1393 1375 1380 1371 1156 1136 372 531 553 455 494 460 316 408 449 375 154 161 190 192 173 162 280 251 121 1 32 189 193
840 1075 701 662 802 822 962 1179 1110 1362 1468 1550 1615 1427 1274 1130 1006 825 795 697 523 316 283 250 434 542 283 151 328 470 347 194 84 153 126 231 421 544 457 349 226 114 119 75
1198 1431 1377 1231 1110 1100 1140 1237 1222 1273 1181 1102 1038 937 811 649 526 314 126 77 211 126 9 0 0 5 5 6 16 104 190 93 103 44 72 82 17 0 267 109 56 0 12 30
510 1231 1024 967 880 821 801 802 818 855 828 772 737 640 513 208 175 298 262 100 0 3 16 0 0 0 1 28 92 69 50 48 17 81 180 144 37 320 201 33 0 0 1 93
717 641 536 340 163 127 113 119 63 70 65 31 28 20 0 6 19 121 40 13 0 0 0 0 0 0 0 0 3 20 32 25 111 210 137 365 457 348 229 23 7 52 22 91
150 95 70 45 12 2 0 0 0 0 0 0 0 0 0 0 0 0 0 0 0 0 0 5 21 20 20 15 15 12 28 25 10 73 73 237 430 420 230 38 0 2 154 36
CIN
-7 -45 -86 -60 0 -152 -5 -10 0 -38 -21 0 0 0 0 -1 -33 -89 -74 -109 -130 -207 -291 -349 -363 -377 -376 -370 -347 -308 -235 -228 -249 -261 -426 -415 -33 0 0 0 0 0 0 0
-5 -27 -95 -18 0 0 -36 -4 -4 -47 -5 -149 -169 0 0 0 0 -189 -43 -109 -139 -215 -304 -339 -375 -429 -416 -411 -425 -383 -291 -332 -365 -368 -468 -275 0 0 0 0 0 0 0 0
-9 -5 -49 -33 -29 0 -44 -91 -39 -11 -26 -151 -212 -203 0 0 0 0 -40 -136 -194 -225 -319 -348 -379 -487 -484 -425 -408 -414 -465 -492 -359 0 0 0 0 0 0 0 0 0 0 0
-7 -46 -16 -134 -86 -77 0 -51 -10 -47 -17 -63 -123 -176 -135 0 0 -85 -57 -171 -222 -244 -289 -300 -424 -411 -458 -470 -482 -557 -283 0 0 0 0 0 0 0 0 0 0 0 0 0
-12 -13 -9 -30 -119 -126 -74 -71 -136 -43 -25 -88 -144 -204 0 0 0 -111 -140 -199 -234 -309 -335 -347 -429 -516 -585 -559 0 0 0 0 0 0 0 0 0 0 0 0 0 0 0 0
-25 -11 -5 -6 -25 -17 -44 -20 -58 -11 -20 -7 -100 -66 -26 0 -92 -210 -241 -257 -272 -310 -351 -392 -373 -628 0 0 0 0 0 0 0 0 0 0 0 0 0 0 0 0 0 0
-7 -35 -6 -7 -67 -61 -31 -35 -168 -30 -42 -17 -32 -40 -25 -78 -51 -192 -268 -258 -289 -365 -392 -486 -257 0 0 0 0 0 0 0 0 0 0 0 0 0 0 0 0 0 0 0
0 -17 -11 -71 0 -25 -23 -118 -304 -88 -72 -56 -42 -58 -73 -134 -183 -233 -251 -314 -350 -443 -233 0 0 0 0 0 0 0 0 0 0 0 0 0 0 0 0 0 0 0 0 -2
0 0 0 0 -6 -16 -30 -23 -97 -55 -83 -109 -141 -24 -52 -146 -217 -253 -326 -334 -457 0 0 0 0 0 0 0 0 0 0 0 0 0 0 0 0 0 0 0 0 -1 0 0
-4 -5 -20 0 0 -50 -61 -7 -46 -26 -121 -49 -83 -126 -143 -90 -276 -341 -329 -370 -520 -620 -543 -555 -568 0 0 0 0 0 0 0 0 0 0 0 0 0 0 0 0 0 0 0
-9 -8 -4 -26 0 -7 -6 -26 -65 -39 -14 -8 -48 -48 -86 -210 -310 -323 -345 -432 -446 -441 -487 -552 0 0 0 0 0 0 0 0 0 0 0 0 0 0 0 0 0 0 0 0
-19 -33 -10 -6 0 0 -7 -12 -60 -55 -53 -20 -57 -106 -132 -274 -333 -317 -358 -379 -369 -413 -480 -547 0 0 0 0 0 0 0 0 0 0 0 0 0 0 0 0 0 0 0 0
0 -3 -67 -20 -24 -21 -66 0 -1 -49 -61 -50 -101 -117 -200 -299 -280 -310 -296 -275 -333 -383 -477 -478 0 0 0 0 0 0 0 0 0 0 0 0 0 0 0 0 0 0 0 0
0 0 -83 -7 -6 -19 0 0 -82 -35 -29 -50 -75 -119 -271 -273 -264 -286 -267 -284 -339 -382 -472 0 0 0 0 0 0 0 0 0 0 0 0 0 0 0 0 -6 0 0 0 0
0 -21 0 0 0 -4 -59 -75 -39 -7 -16 -2 -74 -147 -212 -246 -223 -224 -197 -250 -319 -381 -462 -533 0 0 0 0 0 0 0 0 0 0 0 0 0 0 0 -1 0 -2 -14 -15
-40 -84 -4 -2 -3 -5 -2 -9 -16 -6 -2 -24 -67 -86 -143 -157 -161 -146 -171 -283 -382 -410 -428 -442 -261 0 0 0 0 0 0 0 0 0 0 0 0 0 -6 -4 -9 -12 -5 -6
-108 -6 -84 -57 -9 -4 -12 -24 -1 -2 -8 -10 -25 -41 -76 -83 -84 -100 -169 -258 -320 -341 -319 -306 -312 0 0 0 0 0 0 0 0 0 0 0 0 -8 -11 -5 -2 -3 -6 -9
-3 -47 -267 -267 -216 -283 -13 -3 -3 -3 -3 -1 -2 -1 -6 -28 -62 -105 -169 -252 -255 -265 -244 -213 -201 -139 0 0 0 0 0 0 0 0 0 -3 -9 -9 -14 -13 -6 -8 -9 -21
-27 -93 -64 -329 0 0 -68 -45 -4 -2 -2 -1 -4 -5 -17 -22 -46 -77 -118 -158 -177 -167 -151 -150 -172 -204 -109 0 0 0 0 -1 -2 0 0 -9 -12 -11 -13 -14 -16 -18 -12 -6
-19 -85 -172 -189 0 -18 -34 -11 -3 -1 0 -1 0 -5 -5 -11 -51 -50 -57 -64 -81 -88 -86 -96 -118 -101 -92 -82 0 -55 -22 -7 -19 -28 -44 -23 -9 -20 -36 -19 -22 -22 -17 -10
-27 -8 -92 -215 0 0 -29 -12 -5 -1 -1 -13 -2 -2 -2 -2 -4 -8 -15 -14 -5 -5 -34 -50 -58 -47 -27 -19 -69 -42 -14 -7 -8 -22 -34 -21 -13 -10 -30 -46 -39 -8 -21 -16
-17 -23 -122 -214 -191 -106 -43 -67 -54 -21 -6 -1 -2 -5 -7 -12 -8 -8 -4 -3 -6 -42 -16 -9 -12 -6 -3 -7 -13 -12 -8 -2 -5 -6 -21 -18 -28 -16 -11 -33 -18 -74 -18 -37
-8 -19 -50 -36 -42 -30 -14 -43 -33 -18 -26 -12 -1 -6 -8 -11 -17 -17 -12 -5 -19 -21 -13 -5 -2 -7 -21 -23 -3 -4 -5 -9 -15 -10 -23 -15 -4 -9 -4 -6 -18 -24 -33 -17
-15 -14 -25 -31 -32 -36 -45 -26 -11 -5 -9 -4 -4 -4 -1 0 -7 -21 -43 -57 -40 -49 -28 0 0 -3 -3 -1 -5 -5 -11 -13 -6 -42 -57 -21 -70 0 -17 -55 -80 0 -32 -53
-4 -4 -39 -27 -46 -69 -48 -37 -25 -7 -1 -5 -11 -25 -22 -16 -8 -4 -15 -67 0 -7 -5 0 0 0 -6 -10 -6 -4 -3 -6 -41 -58 -63 -32 -28 -45 -55 -105 0 0 -2 -11
-36 -32 -64 -61 -137 -143 -145 -136 -137 -125 -117 -143 -136 -55 0 -35 -24 -21 -33 -43 0 0 0 0 0 0 0 0 -2 -3 -11 -20 -20 -9 -14 -3 -19 -38 -36 -42 -37 -33 -45 -26
-46 -76 -108 -122 -145 -40 0 0 0 0 0 0 0 0 0 0 0 0 0 0 0 0 0 -7 -14 -12 -3 -10 -13 -7 -12 -9 -17 -11 -9 -2 -6 -8 -17 -14 0 -7 -15 -19
Wind_Speed
50 29 19 31 41 46 35 35 42 33 34 24 25 42 37 29 38 28 15 10 9 6 7 6 3 3 5 5 4 3 0 2 5 9 15 17 14 13 14 17 18 17 21 26
48 21 23 30 35 48 37 36 36 42 38 14 14 25 43 30 34 29 14 8 6 3 4 3 2 2 2 3 4 3 0 4 11 12 11 7 6 6 12 16 18 14 24 21
45 42 16 30 13 32 45 47 43 43 36 12 10 9 21 31 24 39 21 10 8 5 5 3 2 1 3 2 2 1 1 3 3 6 6 6 8 11 11 13 15 17 21 22
42 26 38 30 17 13 14 42 33 41 34 14 11 7 9 15 32 11 9 7 5 4 6 4 1 2 2 2 2 3 8 11 8 3 6 6 9 12 12 16 17 19 20 22
41 43 40 26 12 23 13 26 13 17 43 11 7 2 7 7 8 9 8 6 4 4 3 2 2 3 5 9 4 3 3 4 6 7 9 8 7 10 12 18 19 19 20 22
36 39 45 38 22 6 20 28 20 13 25 18 14 12 14 6 35 14 2 4 2 3 4 4 6 7 6 5 2 0 3 5 8 8 6 6 12 15 17 18 18 18 19 20
37 35 31 24 22 21 19 15 22 18 20 25 17 15 10 13 14 9 0 1 0 3 4 4 7 8 8 6 4 3 4 7 9 9 8 12 15 17 18 18 18 20 19 15
37 34 32 18 25 27 26 18 14 19 10 8 6 3 7 10 6 5 4 5 4 4 4 5 7 9 7 4 5 5 6 8 9 9 12 15 17 17 17 17 18 18 16 17
34 38 37 19 19 5 9 21 20 16 6 0 2 4 1 2 6 6 5 6 6 6 7 8 8 7 6 6 6 6 8 9 10 12 14 16 17 17 18 16 15 16 18 19
35 36 31 24 14 22 14 7 7 5 5 5 2 4 10 13 6 4 6 8 9 9 10 8 6 5 5 5 6 7 8 10 11 13 15 15 16 16 16 16 16 17 19 20
31 31 19 19 22 24 16 10 10 11 9 10 6 9 12 4 5 7 9 10 11 11 11 9 7 6 7 7 7 7 9 10 12 13 14 16 18 18 17 17 18 18 18 19
31 32 22 15 19 18 13 13 12 11 10 6 2 4 3 2 3 4 6 7 9 10 10 9 8 7 6 6 6 7 9 10 11 12 13 14 14 15 17 16 15 15 16 17
27 23 18 9 10 9 13 18 18 13 10 5 4 5 2 2 2 4 5 5 7 8 9 7 7 7 7 6 6 7 9 9 10 11 10 11 11 12 13 12 13 12 12 13
27 25 26 30 20 20 19 22 18 15 10 9 4 3 3 2 4 5 4 5 8 9 8 7 7 7 7 7 6 7 10 10 10 10 11 11 12 12 11 10 11 10 8 8
20 28 28 24 25 21 23 24 17 12 10 8 5 4 4 5 6 6 7 9 8 8 6 7 7 6 6 6 6 7 9 9 10 10 10 11 11 13 13 14 15 14 9 9
29 29 29 33 25 23 20 18 16 12 10 6 6 5 6 8 8 8 9 8 7 5 6 5 4 4 4 5 7 8 8 8 8 9 10 11 11 11 12 12 14 12 11 14
28 37 31 30 20 18 20 17 15 12 8 8 6 8 10 10 9 8 7 6 4 4 3 2 2 3 3 5 6 8 8 8 7 9 8 9 9 9 13 16 14 13 15 14
25 12 14 15 17 24 22 14 11 9 10 9 11 11 10 10 8 8 7 5 2 1 1 2 3 2 2 4 4 7 7 7 7 7 10 12 10 11 12 14 16 17 15 11
22 17 12 11 16 24 20 19 11 11 11 9 8 8 7 7 6 6 5 3 2 0 1 2 2 1 2 3 3 6 6 6 4 6 7 10 10 11 11 12 11 14 15 17
24 20 10 5 9 19 13 9 1 2 4 5 4 5 5 4 5 4 2 1 0 3 2 2 1 1 2 3 1 5 6 9 7 7 7 8 12 11 13 14 11 12 15 14
16 20 17 8 7 16 21 12 9 5 7 4 5 3 3 2 3 2 2 2 2 4 1 1 1 1 2 3 2 4 7 11 9 8 8 9 9 11 11 12 21 22 12 20
17 16 12 5 6 12 18 15 10 10 10 10 8 8 4 3 2 3 5 7 2 2 3 2 0 0 4 3 1 3 5 8 9 10 9 8 9 9 8 9 11 2 3 21
8 8 7 4 4 4 3 6 8 8 8 10 11 7 6 6 6 5 4 8 4 3 7 4 3 2 4 8 3 3 4 9 7 13 11 5 10 22 10 4 2 10 16 26
9 9 4 2 1 2 3 6 6 7 7 6 8 9 7 5 7 7 8 7 6 5 9 12 13 5 3 4 4 7 5 6 9 17 18 10 15 9 2 2 1 25 7 22
9 13 4 3 2 1 3 5 7 7 7 7 8 10 12 11 12 6 7 8 9 10 9 9 10 10 9 7 7 9 8 9 11 15 12 10 9 4 4 6 8 9 5 1
9 11 5 7 4 3 4 5 8 8 9 9 9 9 10 10 10 10 11 10 11 14 11 8 8 9 9 6 4 5 10 8 7 9 8 7 6 7 9 10 11 8 6 15
8 7 6 5 5 7 8 10 10 11 10 10 11 11 10 10 10 11 9 10 10 11 8 5 7 6 7 12 6 8 11 11 11 9 8 7 9 9 10 8 11 18 21 23
Wind_Direction
242 255 249 265 257 255 256 260 246 259 252 259 269 246 250 267 274 265 234 238 255 273 286 293 325 81 117 118 131 141 176 292 276 295 315 326 324 339 347 346 346 333 344 339
245 247 252 258 254 241 265 269 258 255 254 267 273 263 236 265 253 258 253 248 252 282 321 318 267 237 164 161 146 143 133 318 310 306 348 13 21 8 353 352 350 356 347 356
244 248 218 251 245 278 259 254 267 252 265 247 267 293 256 272 285 253 241 260 271 285 305 308 301 173 190 200 192 158 68 57 56 29 32 8 349 348 355 356 344 350 352 345
249 256 247 265 218 281 266 238 262 258 267 226 243 265 267 257 252 265 286 297 298 304 290 282 242 248 123 221 219 109 110 107 99 52 358 2 359 347 355 2 3 355 357 351
250 250 260 270 273 260 261 249 212 194 237 215 177 231 287 253 295 270 281 319 352 21 36 70 105 154 126 121 121 114 66 29 24 7 347 351 2 9 11 5 2 4 359 353
257 254 251 260 282 316 198 279 201 248 269 265 202 258 274 195 199 200 202 315 57 44 80 93 100 112 121 131 129 32 344 355 359 3 10 26 12 8 7 5 1 2 360 359
250 253 264 284 278 278 280 282 307 275 270 259 243 251 273 173 155 145 45 82 113 97 99 104 109 117 117 114 106 79 28 11 22 26 20 5 5 5 6 4 3 360 359 7
247 248 250 292 285 267 261 279 322 287 279 302 261 196 132 144 135 119 120 128 118 111 120 108 111 113 105 91 77 60 37 31 26 23 8 6 5 6 5 5 5 7 10 8
249 248 246 291 286 336 293 269 266 283 341 120 70 49 145 119 112 110 113 120 121 121 121 122 117 111 102 80 63 45 34 23 14 9 9 9 7 6 4 4 5 6 4 6
248 250 254 257 292 261 261 309 340 343 41 350 193 64 126 136 104 101 116 119 119 127 129 125 111 101 80 60 57 47 31 16 10 8 8 8 7 4 5 7 6 5 4 4
249 254 269 263 258 259 280 308 311 317 310 105 94 114 124 127 112 106 108 107 115 122 124 119 108 94 86 82 67 43 24 16 8 5 5 3 358 1 5 5 6 4 4 8
246 255 255 263 255 261 284 282 298 308 303 317 92 103 132 134 133 129 126 110 120 124 121 115 106 92 86 82 57 32 17 7 6 6 7 7 9 11 13 18 17 20 21 17
262 264 266 258 261 289 284 275 279 287 291 312 260 251 237 192 172 153 135 122 129 133 123 113 105 97 88 77 59 35 13 14 9 12 19 16 22 19 13 23 26 28 28 25
274 271 257 245 275 272 278 272 280 284 278 282 267 209 178 197 186 170 164 139 134 128 119 111 101 94 90 74 49 26 11 13 11 8 13 11 5 5 7 19 13 14 28 34
231 251 264 273 276 273 279 273 273 269 269 268 243 202 190 177 175 163 146 138 132 125 113 106 97 86 75 55 32 19 9 7 6 11 13 12 16 5 3 3 1 5 11 11
265 271 263 254 265 269 272 267 262 255 249 236 224 199 171 159 158 151 145 140 138 132 118 106 77 66 52 32 13 5 8 14 13 12 14 6 4 6 2 2 1 3 3 4
259 261 275 278 278 274 266 259 249 237 228 204 186 160 153 150 145 146 144 136 126 120 110 80 38 51 35 18 10 4 4 4 3 3 6 10 2 359 353 351 352 356 357 0
251 246 273 275 282 309 270 235 209 187 174 157 145 144 146 150 154 152 143 138 119 92 69 34 24 39 29 11 9 0 2 9 14 357 350 347 351 352 348 343 345 344 354 4
267 276 297 301 269 288 290 268 167 163 143 141 148 155 150 151 152 150 142 140 129 92 340 30 38 40 10 17 15 356 353 355 4 355 347 344 343 338 336 334 332 335 341 341
262 258 261 314 278 272 254 293 19 153 142 143 154 161 160 158 150 170 183 203 295 329 6 359 44 19 36 11 13 350 350 346 342 329 321 329 333 334 334 333 327 334 329 333
252 246 256 271 285 254 269 297 342 301 262 259 257 243 227 199 151 218 250 275 309 336 31 26 48 47 349 347 351 341 333 335 330 336 318 305 321 328 333 334 306 313 326 315
249 246 255 264 271 260 263 286 298 294 290 282 281 272 281 288 293 279 298 310 282 10 351 356 31 107 333 317 321 327 332 337 333 332 328 313 321 329 334 332 314 240 356 317
220 221 222 236 26 16 348 301 308 323 313 295 281 305 312 308 304 300 307 324 9 343 331 342 347 321 330 339 316 305 326 338 329 337 341 333 351 328 330 335 318 314 310 290
220 215 231 207 123 43 12 15 352 345 3 351 305 295 323 336 330 340 337 336 337 339 330 333 329 335 336 345 341 336 318 328 343 344 344 344 348 3 301 6 246 266 331 296
217 221 212 216 200 276 333 357 2 6 16 347 323 307 307 314 317 336 350 336 331 323 327 336 338 340 338 336 329 333 338 340 345 347 2 351 2 40 92 120 132 152 149 291
208 226 228 251 267 295 339 1 340 335 337 335 326 318 313 319 318 322 325 334 333 326 323 349 350 351 350 345 349 354 356 4 8 358 355 12 46 65 111 122 143 129 21 249
225 236 238 260 288 296 310 316 318 318 326 325 317 312 314 319 320 308 327 334 330 349 6 20 13 23 26 5 30 8 4 0 4 19 37 72 88 110 116 90 110 170 193 234